Weather History for Ann Arbor, MI

Change the Weather History Date:

Wednesday, October 2, 2013

  Actual Average Record
Temperature  
Mean Temperature 66 °F -  
Max Temperature 81 °F 63 °F 81 °F (2013)
Min Temperature 51 °F 37 °F 28 °F (2003)
Growing Degree Days 16 (Base 50)    
Moisture  
Dew Point 53 °F    
Average Humidity 79    
Maximum Humidity 100    
Minimum Humidity 28    
Precipitation  
Precipitation 0.01 in - - ()
Sea Level Pressure  
Sea Level Pressure 30.03 in    
Wind  
Wind Speed 4 mph (West)    
Max Wind Speed 7 mph    
Max Gust Speed -    
Visibility 6 miles    
Events Fog    
Averages and records for this station are not official NWS values.
T = Trace of Precipitation, MM = Missing Value Source: NWS Daily Summary

Daily Weather History Graph

Daily Weather History Graph

Search for Another Location

Airport:

Trip Planner

Search our weather history database for the weather conditions in past years. The results will help you decide how hot, cold, wet, or windy it might be!

Date:

Astronomy

Oct. 02, 2013 Rise Set
Actual Time 7:33 AM EDT 7:14 PM EDT
Civil Twilight 7:05 AM EDT 7:42 PM EDT
Nautical Twilight 6:32 AM EDT 8:14 PM EDT
Astronomical Twilight 6:00 AM EDT 8:47 PM EDT
Moon 5:03 AM EDT (10/2) 5:51 PM EDT (10/2)
Length of Visible Light 12h 36m
Length of Day
11h 40m
Waning Crescent, 6% of the Moon is Illuminated
Oct 2
Waning Crescent
Oct 4
New
Oct 11
First Quarter
Oct 18
Full
Oct 26
Last Quarter

Hourly Weather History & Observations

Time (EDT) Temp. Dew Point Humidity Pressure Visibility Wind Dir Wind Speed Gust Speed Precip Events Conditions
12:53 AM 61.0 °F 57.9 °F 90% 29.96 in 10.0 mi SW 5.8 mph - N/A   Clear
1:53 AM 57.9 °F 55.9 °F 93% 29.97 in 10.0 mi SW 3.5 mph - 0.01 in   Clear
2:53 AM 57.9 °F 55.9 °F 93% 29.97 in 8.0 mi WSW 4.6 mph - N/A   Clear
3:53 AM 57.9 °F 57.0 °F 97% 29.98 in 8.0 mi WSW 6.9 mph - N/A   Clear
4:53 AM 57.0 °F 55.9 °F 96% 29.99 in 3.0 mi SW 3.5 mph - N/A   Partly Cloudy
4:56 AM 55.4 °F 55.4 °F 100% 30.00 in 1.8 mi WSW 3.5 mph - N/A   Clear
5:04 AM 55.4 °F 55.4 °F 100% 30.00 in 1.0 mi SW 5.8 mph - N/A   Clear
5:08 AM 55.4 °F 55.4 °F 100% 30.00 in 2.0 mi WSW 5.8 mph - N/A   Clear
5:18 AM 57.2 °F 55.4 °F 94% 30.00 in 5.0 mi SW 4.6 mph - N/A   Clear
5:53 AM 57.9 °F 57.0 °F 97% 30.01 in 5.0 mi West 4.6 mph - N/A   Partly Cloudy
6:25 AM 57.2 °F 57.2 °F 100% 30.02 in 1.8 mi West 3.5 mph - N/A   Clear
6:29 AM 57.2 °F 57.2 °F 100% 30.02 in 0.8 mi West 3.5 mph - N/A   Clear
6:36 AM 55.4 °F 55.4 °F 100% 30.02 in 0.2 mi Calm Calm - N/A Fog Fog
6:53 AM 53.1 °F 53.1 °F 100% 30.03 in 0.2 mi Calm Calm - N/A Fog Fog
7:15 AM 53.6 °F 53.6 °F 100% 30.03 in 0.2 mi Calm Calm - N/A Fog Fog
7:29 AM 53.6 °F 51.8 °F 94% 30.03 in 0.2 mi Calm Calm - N/A Fog Fog
7:53 AM 51.1 °F 51.1 °F 100% 30.05 in 0.2 mi Calm Calm - N/A Fog Fog
8:49 AM 59.0 °F 57.2 °F 94% 30.06 in 1.5 mi Calm Calm - N/A   Scattered Clouds
8:53 AM 60.1 °F 59.0 °F 96% 30.06 in 4.0 mi Calm Calm - N/A   Partly Cloudy
9:53 AM 68.0 °F 57.0 °F 68% 30.07 in 10.0 mi North 3.5 mph - N/A   Clear
10:53 AM 72.0 °F 52.0 °F 49% 30.08 in 10.0 mi North 5.8 mph - N/A   Clear
11:53 AM 73.9 °F 46.9 °F 38% 30.08 in 10.0 mi WNW 3.5 mph - N/A   Clear
12:53 PM 77.0 °F 45.0 °F 32% 30.07 in 10.0 mi WNW 4.6 mph - N/A   Clear
1:53 PM 78.1 °F 46.0 °F 32% 30.07 in 10.0 mi NNW 4.6 mph - N/A   Clear
2:53 PM 79.0 °F 46.0 °F 31% 30.05 in 10.0 mi WNW 5.8 mph - N/A   Clear
3:53 PM 80.1 °F 46.0 °F 30% 30.04 in 10.0 mi NW 6.9 mph - N/A   Clear
4:53 PM 80.1 °F 44.1 °F 28% 30.03 in 10.0 mi Variable 3.5 mph - N/A   Clear
5:53 PM 78.1 °F 43.0 °F 29% 30.03 in 10.0 mi WNW 3.5 mph - N/A   Clear
6:53 PM 68.0 °F 54.0 °F 61% 30.04 in 10.0 mi Calm Calm - N/A   Clear
7:53 PM 57.0 °F 52.0 °F 83% 30.06 in 6.0 mi Calm Calm - N/A   Haze
8:53 PM 59.0 °F 50.0 °F 72% 30.06 in 10.0 mi Calm Calm - N/A   Clear
9:53 PM 53.1 °F 50.0 °F 89% 30.06 in 10.0 mi Calm Calm - N/A   Clear
10:53 PM 53.1 °F 51.1 °F 93% 30.06 in 10.0 mi Calm Calm - N/A   Clear
11:53 PM 53.1 °F 51.1 °F 93% 30.07 in 10.0 mi Calm Calm - N/A   Clear